Location: Temple Hill
(37.3073°N, 88.6303°W)
Time: 17:38:29
(UTC+00:00)

Cosmos 1943 Rocket - Pass Details

Date: 23 November 2020
Orbit: 811 x 844 km, 71.0° (Epoch: 20 January)

Event Time Altitude Azimuth Distance (km) Brightness Sun altitude
Rises 23:49:02 0° 353° (N) 3,351 5.2 -13.8°
Reaches altitude 10° 23:52:23 10° 14° (NNE) 2,421 4.3 -14.4°
Enters shadow 23:54:55 16° 41° (NE) 2,020 3.7 -14.9°
